This is the latest recevied weather packets stored in our database for station/object WD4HMR. If no packets are shown the sender has not sent any weather packets the latest 10 day(s).
| Time | Temp. | Humidity | Pressure | Rain* | Wind** | Luminosity | Snow |
|---|---|---|---|---|---|---|---|
| 1777747128 | 17.78° C | 43% | 1016.4 hPa | 0 mm | - | - | - |
| 1777746708 | 17.78° C | 43% | 1016.6 hPa | 0 mm | - | - | - |
| 1777746287 | 17.22° C | 43% | 1016.6 hPa | 0 mm | - | - | - |
| 1777745867 | 17.22° C | 44% | 1016.6 hPa | 0 mm | - | - | - |
| 1777745447 | 17.22° C | 45% | 1016.7 hPa | 0 mm | - | - | - |
| 1777745028 | 17.22° C | 44% | 1016.7 hPa | 0 mm | - | - | - |
| 1777744607 | 17.22° C | 48% | 1017 hPa | 0 mm | - | - | - |
| 1777744187 | 17.22° C | 47% | 1016.9 hPa | 0 mm | - | - | - |
| 1777743769 | 16.67° C | 48% | 1016.9 hPa | 0 mm | - | - | - |
| 1777743348 | 16.67° C | 48% | 1017 hPa | 0 mm | - | - | - |
| 1777742927 | 16.67° C | 47% | 1016.9 hPa | 0 mm | - | - | - |
| 1777742507 | 16.11° C | 49% | 1016.9 hPa | 0 mm | - | - | - |
| 1777742086 | 16.11° C | 50% | 1017 hPa | 0 mm | - | - | - |
| 1777741666 | 16.11° C | 51% | 1017.1 hPa | 0 mm | - | - | - |
| 1777741246 | 15.56° C | 53% | 1017 hPa | 0 mm | - | - | - |
| 1777740827 | 15.56° C | 53% | 1017.1 hPa | 0 mm | - | - | - |
| 1777740407 | 15° C | 54% | 1017.2 hPa | 0 mm | - | - | - |
| 1777740290 | 15° C | 54% | 1017.1 hPa | 0 mm | - | - | - |
| 1777740212 | 15° C | 53% | 1017.1 hPa | 0 mm | - | - | - |
| 1777739870 | 15° C | 55% | 1017.2 hPa | 0 mm | - | - | - |
| 1777739732 | 15° C | 55% | 1017.3 hPa | 0 mm | - | - | - |
| 1777739449 | 15° C | 54% | 1017.4 hPa | 0 mm | - | - | - |
| 1777739252 | 15° C | 57% | 1017.4 hPa | 0 mm | - | - | - |
| 1777739028 | 14.44° C | 59% | 1017.3 hPa | 0 mm | - | - | - |
| 1777738772 | 14.44° C | 60% | 1017.4 hPa | 0 mm | - | - | - |
* Rain latest hour (hover to see other rain measurements)
** Current wind speed in m/s (hover to see current wind gust speed)